Back to catalog

STARLINK-5076

AliveCommunicationsVLEO
NORAD 55401·PAYLOAD·🇺🇸 United States

Launched Jan 31, 2023 from Vandenberg Space Force Base

Loading…

Next Passes (next 24 hours)

TLE

FreshSource: CelesTrak SupGP

Epoch: Sep 15, 2026, 01:32 UTC

1 55401C 23014L   26258.06437500  .00054183  00000+0  45407-2 0  2583
2 55401  69.9997 306.9138 0003800 266.4105  87.5354 14.98301799    15

Track STARLINK-5076 in real time with AllMySat

Download on the App Store